Terminal Aerodrome Forecast
Issued by NWS Houston/Galveston, TX

Home | Current Version | Previous Version | Text Only | Print | Product List | Glossary On
Versions: 1 2 3 4 5 6 7 8 9 10 11 12 13 14 15 16 17 18 19 20 21 22 23 24 25 26 27 28 29 30 31 32 33 34 35 36 37 38 39
705
FTUS44 KHGX 260543
TAFCLL
TAF
KCLL 260543Z 2606/2706 08005KT P6SM SKC
     FM261400 13010KT P6SM BKN017 BKN035
     FM261600 14011G18KT P6SM BKN035
     FM262000 16010G17KT P6SM VCTS BKN030CB
     FM270200 17008KT P6SM VCSH BKN030=

USA.gov is the U.S. government's official web portal to all federal, state and local government web resources and services.